C/2020 P3 ( ATLAS )

Japanese version
Home page
Updated on March 27, 2022

---------------------------------------------------------------------

* Profile

Discovery Date August 9, 2020
Magnitude 19.0 mag
Discoverer Asteroid Terrestrial-Impact Last Alert System (ATLAS) search program

* Pictures

* Orbital Elements

Epoch 2022 Jan. 21.0 TT = JDT 2459600.5
T 2021 Apr. 20.87735 TT                                 Rudenko
q   6.8123472            (2000.0)            P               Q
z  +0.0000375      Peri.   82.25124     -0.02855759     -0.95536019
 +/-0.0000011      Node    19.47515     +0.09749121     -0.29543963
e   0.9997443      Incl.   61.88573     +0.99482658     +0.00152789
From 460 observations 2020 Aug. 9-2022 Jan. 30, mean residual 0".5.

* Magnitudes Graph

        m1 = -3.5 + 5 log d + 20.0 log r(t - 150)

---------------------------------------------------------------------

The orbital elements are published on M.P.E.C. 2022-C56.
The magnitudes graphs are made with Comet for Windows.

---------------------------------------------------------------------

Copyright(C) Seiichi Yoshida (comet@aerith.net). All rights reserved.